East Milton, MA

11:09 AM EDT on October 18, 2017 (GMT -0400)
East Milton

Weather History for KMQE - April, 2014

Change the Weather History Date:

Monday, April 28, 2014

  Actual Average (KOWD) Record (KOWD)
Temperature  
Mean Temperature 46 °F -  
Max Temperature 57 °F 62 °F 84 °F (2017)
Min Temperature 37 °F 38 °F 30 °F (2006)
Degree Days  
Heating Degree Days 19    
Moisture  
Dew Point 36 °F    
Average Humidity 73    
Maximum Humidity 89    
Minimum Humidity 47    
Precipitation  
Precipitation 0.00 in - - ()
Sea Level Pressure  
Sea Level Pressure 30.09 in    
Wind  
Wind Speed 12 mph (NNE)    
Max Wind Speed 20 mph    
Max Gust Speed 30 mph    
Averages and records for this station are not official NWS values.
T = Trace of Precipitation, MM = Missing Value Source: NWS Daily Summary

Daily Weather History Graph

Daily Weather History Graph

Search for Another Location

Airport or City:

Trip Planner

Search our weather history database for the weather conditions in past years. The results will help you decide how hot, cold, wet, or windy it might be!

Date:

Astronomy

Apr. 28, 2014 Rise Set
Actual Time 5:44 AM EDT 7:40 PM EDT
Civil Twilight 5:13 AM EDT 8:10 PM EDT
Nautical Twilight 4:37 AM EDT 8:47 PM EDT
Astronomical Twilight 3:57 AM EDT 9:28 PM EDT
Moon 5:21 AM EDT (4/28) 7:14 PM EDT (4/28)
Length of Visible Light 14h 56m
Length of Day
13h 56m
Waning Crescent, 0% of the Moon is Illuminated
Apr 28
Waning Crescent
Apr 29
New
May 6
First Quarter
May 14
Full
May 21
Last Quarter

Hourly Weather History & Observations

Time (EDT) Temp. Windchill Dew Point Humidity Pressure Visibility Wind Dir Wind Speed Gust Speed Precip Events Conditions
12:54 AM 39.9 °F 32.1 °F 36.0 °F 86% 30.06 in - NW 13.8 mph - N/A   Unknown
1:54 AM 39.9 °F 32.1 °F 35.1 °F 83% 30.06 in - NNW 13.8 mph - N/A   Unknown
2:54 AM 39.0 °F 31.4 °F 35.1 °F 86% 30.05 in - NW 12.7 mph 21.9 mph N/A   Unknown
3:54 AM 37.9 °F 29.2 °F 34.0 °F 86% 30.04 in - NW 15.0 mph - N/A   Unknown
4:54 AM 37.9 °F 29.6 °F 34.0 °F 86% 30.02 in - NNW 13.8 mph - N/A   Unknown
5:54 AM 37.0 °F 29.3 °F 34.0 °F 89% 30.01 in - NW 11.5 mph - N/A   Unknown
6:54 AM 37.9 °F 30.9 °F 34.0 °F 86% 30.03 in - NW 10.4 mph - N/A   Unknown
7:54 AM 41.0 °F 35.2 °F 35.1 °F 79% 30.05 in - NW 9.2 mph - N/A   Unknown
8:54 AM 46.9 °F - 36.0 °F 66% 30.05 in - North 11.5 mph - N/A   Unknown
11:54 AM 51.1 °F - 35.1 °F 54% 30.07 in - North 4.6 mph - N/A   Unknown
12:54 PM 53.1 °F - 36.0 °F 52% 30.05 in - North 11.5 mph - N/A   Unknown
1:54 PM 55.0 °F - 37.0 °F 51% 30.05 in - Variable 4.6 mph - N/A   Unknown
2:54 PM 55.9 °F - 36.0 °F 47% 30.04 in - ENE 9.2 mph - N/A   Unknown
3:54 PM 52.0 °F - 37.0 °F 57% 30.08 in - ENE 9.2 mph - N/A   Unknown
5:54 PM 48.0 °F - 37.0 °F 66% 30.13 in - ENE 12.7 mph 21.9 mph N/A   Unknown
6:54 PM 46.0 °F 39.6 °F 37.0 °F 71% 30.14 in - ENE 15.0 mph 21.9 mph N/A   Unknown
7:54 PM 45.0 °F 38.2 °F 37.9 °F 76% 30.17 in - ENE 15.0 mph 20.7 mph N/A   Unknown
8:54 PM 44.1 °F 38.1 °F 37.9 °F 79% 30.19 in - ENE 11.5 mph 20.7 mph N/A   Unknown
9:54 PM 45.0 °F 39.7 °F 37.9 °F 76% 30.21 in - NE 10.4 mph 23.0 mph N/A   Unknown
10:54 PM 45.0 °F 37.4 °F 37.9 °F 76% 30.22 in - ENE 18.4 mph 29.9 mph N/A   Unknown
11:54 PM 42.1 °F 33.3 °F 37.9 °F 85% 30.23 in - ENE 19.6 mph 29.9 mph N/A   Unknown